| time (UTC) | temp F | wind direction | speed MPH | gust MPH | rain 1hr in | rain 24hr in | rain mn in | humidity % | barometer mb |
| 20260507134603 | 71 | 132 | 5.0 | 6.0 | 0.00 | 0.00 | 0.00 | 53 | 1013.7 |
| 20260507134104 | 71 | 133 | 3.0 | 7.0 | 0.00 | 0.00 | 0.00 | 55 | 1013.8 |
| 20260507133105 | 71 | 129 | 3.0 | 6.0 | 0.00 | 0.00 | 0.00 | 54 | 1013.9 |
| 20260507132603 | 70 | 153 | 2.0 | 9.0 | 0.00 | 0.00 | 0.00 | 56 | 1014.0 |
| 20260507131106 | 71 | 302 | 2.0 | 10.0 | 0.00 | 0.00 | 0.00 | 53 | 1014.0 |
| 20260507130605 | 71 | 110 | 2.0 | 5.0 | 0.00 | 0.00 | 0.00 | 51 | 1014.0 |
| 20260507125607 | 71 | 305 | 2.0 | 5.0 | 0.00 | 0.00 | 0.00 | 53 | 1014.0 |
| 20260507125104 | 71 | 139 | 2.0 | 5.0 | 0.00 | 0.00 | 0.00 | 53 | 1014.0 |
| 20260507124604 | 70 | 116 | 2.0 | 6.0 | 0.00 | 0.00 | 0.00 | 54 | 1014.0 |
| 20260507124103 | 70 | 111 | 2.0 | 5.0 | 0.00 | 0.00 | 0.00 | 57 | 1014.1 |
| 20260507123604 | 69 | 227 | 2.0 | 5.0 | 0.00 | 0.00 | 0.00 | 55 | 1014.2 |
| 20260507123105 | 69 | 124 | 2.0 | 5.0 | 0.00 | 0.00 | 0.00 | 57 | 1014.2 |
| 20260507122603 | 69 | 126 | 2.0 | 6.0 | 0.00 | 0.00 | 0.00 | 54 | 1014.2 |
| 20260507121604 | 70 | 127 | 2.0 | 6.0 | 0.00 | 0.00 | 0.00 | 56 | 1014.2 |
| 20260507121104 | 71 | 163 | 2.0 | 5.0 | 0.00 | 0.00 | 0.00 | 52 | 1014.2 |
| 20260507120104 | 70 | 20 | 2.0 | 5.0 | 0.00 | 0.00 | 0.00 | 53 | 1014.2 |
| 20260507115604 | 70 | 357 | 2.0 | 6.0 | 0.00 | 0.00 | 0.00 | 52 | 1014.4 |
| 20260507115104 | 70 | 5 | 2.0 | 6.0 | 0.00 | 0.00 | 0.00 | 52 | 1014.5 |
| 20260507114604 | 70 | 260 | 2.0 | 5.0 | 0.00 | 0.00 | 0.00 | 51 | 1014.5 |
| 20260507113604 | 70 | 339 | 2.0 | 6.0 | 0.00 | 0.00 | 0.00 | 56 | 1014.6 |
| 20260507113104 | 70 | 345 | 2.0 | 6.0 | 0.00 | 0.00 | 0.00 | 56 | 1014.6 |
| 20260507112606 | 70 | 122 | 2.0 | 5.0 | 0.00 | 0.00 | 0.00 | 56 | 1014.7 |
| 20260507112104 | 69 | 166 | 2.0 | 5.0 | 0.00 | 0.00 | 0.00 | 55 | 1014.7 |
| 20260507111605 | 69 | 177 | 2.0 | 5.0 | 0.00 | 0.00 | 0.00 | 56 | 1014.7 |
| 20260507111105 | 69 | 277 | 2.0 | 6.0 | 0.00 | 0.00 | 0.00 | 57 | 1014.8 |
| 20260507110604 | 69 | 123 | 2.0 | 7.0 | 0.00 | 0.00 | 0.00 | 56 | 1014.8 |
| 20260507110104 | 68 | 206 | 2.0 | 5.0 | 0.00 | 0.00 | 0.00 | 58 | 1014.8 |
| 20260507105603 | 68 | 157 | 2.0 | 5.0 | 0.00 | 0.00 | 0.00 | 58 | 1014.8 |
| 20260507105110 | 68 | 156 | 2.0 | 5.0 | 0.00 | 0.00 | 0.00 | 63 | 1014.8 |
| 20260507104604 | 67 | 180 | 2.0 | 5.0 | 0.00 | 0.00 | 0.00 | 64 | 1014.8 |
| 20260507104104 | 66 | 146 | 2.0 | 5.0 | 0.00 | 0.00 | 0.00 | 66 | 1014.9 |
| 20260507103104 | 66 | 284 | 2.0 | 5.0 | 0.00 | 0.00 | 0.00 | 69 | 1015.0 |
| 20260507102103 | 65 | 140 | 2.0 | 5.0 | 0.00 | 0.00 | 0.00 | 70 | 1015.1 |
| 20260507101604 | 65 | 293 | 2.0 | 6.0 | 0.00 | 0.00 | 0.00 | 73 | 1015.1 |
| 20260507101104 | 65 | 315 | 2.0 | 5.0 | 0.00 | 0.00 | 0.00 | 73 | 1015.1 |
| 20260507100604 | 64 | 307 | 2.0 | 3.0 | 0.00 | 0.00 | 0.00 | 72 | 1015.1 |
| 20260507100103 | 65 | 308 | 2.0 | 5.0 | 0.00 | 0.00 | 0.00 | 72 | 1015.1 |
| 20260507095603 | 64 | 340 | 2.0 | 5.0 | 0.00 | 0.00 | 0.00 | 72 | 1015.2 |
| 20260507095105 | 64 | 330 | 2.0 | 6.0 | 0.00 | 0.00 | 0.00 | 72 | 1015.2 |
| 20260507094604 | 64 | 290 | 2.0 | 5.0 | 0.00 | 0.00 | 0.00 | 72 | 1015.2 |
| 20260507093611 | 64 | 327 | 2.0 | 3.0 | 0.00 | 0.00 | 0.00 | 74 | 1015.1 |
| 20260507093103 | 64 | 306 | 2.0 | 8.0 | 0.00 | 0.00 | 0.00 | 73 | 1015.1 |
| 20260507092604 | 63 | 301 | 2.0 | 5.0 | 0.00 | 0.00 | 0.00 | 74 | 1015.1 |
| 20260507092104 | 64 | 313 | 2.0 | 5.0 | 0.00 | 0.00 | 0.00 | 73 | 1015.1 |
| 20260507091603 | 64 | 305 | 2.0 | 3.0 | 0.00 | 0.00 | 0.00 | 73 | 1015.1 |
| 20260507091104 | 64 | 301 | 1.0 | 5.0 | 0.00 | 0.00 | 0.00 | 73 | 1015.0 |
| 20260507090604 | 64 | 84 | 1.0 | 2.0 | 0.00 | 0.00 | 0.00 | 73 | 1015.0 |
| 20260507090104 | 63 | 84 | 2.0 | 2.0 | 0.00 | 0.00 | 0.00 | 74 | 1015.0 |
| 20260507085603 | 63 | 341 | 2.0 | 3.0 | 0.00 | 0.00 | 0.00 | 76 | 1015.0 |
| 20260507085109 | 62 | 314 | 1.0 | 3.0 | 0.00 | 0.00 | 0.00 | 76 | 1015.0 |
| 20260507084604 | 62 | 304 | 1.0 | 5.0 | 0.00 | 0.00 | 0.00 | 76 | 1015.0 |
| 20260507084104 | 62 | 21 | 2.0 | 3.0 | 0.00 | 0.00 | 0.00 | 77 | 1015.0 |
| 20260507083603 | 62 | 21 | 2.0 | 2.0 | 0.00 | 0.00 | 0.00 | 77 | 1015.0 |
| 20260507082604 | 62 | 40 | 2.0 | 5.0 | 0.00 | 0.00 | 0.00 | 77 | 1014.9 |
| 20260507082104 | 62 | 309 | 2.0 | 5.0 | 0.00 | 0.00 | 0.00 | 77 | 1014.8 |
| 20260507081604 | 62 | 309 | 2.0 | 5.0 | 0.00 | 0.00 | 0.00 | 77 | 1014.8 |
| 20260507081104 | 62 | 327 | 2.0 | 3.0 | 0.00 | 0.00 | 0.00 | 77 | 1014.8 |
| 20260507080104 | 61 | 282 | 2.0 | 5.0 | 0.00 | 0.00 | 0.00 | 79 | 1014.8 |
| 20260507075606 | 61 | 327 | 2.0 | 3.0 | 0.00 | 0.00 | 0.00 | 82 | 1014.7 |
| 20260507075104 | 60 | 175 | 2.0 | 5.0 | 0.00 | 0.00 | 0.00 | 81 | 1014.7 |
| 20260507074604 | 60 | 313 | 2.0 | 3.0 | 0.00 | 0.00 | 0.00 | 81 | 1014.7 |
| 20260507074103 | 60 | 313 | 2.0 | 5.0 | 0.00 | 0.00 | 0.00 | 80 | 1014.7 |
| 20260507073604 | 61 | 301 | 2.0 | 6.0 | 0.00 | 0.00 | 0.00 | 79 | 1014.7 |
| 20260507073104 | 61 | 299 | 2.0 | 5.0 | 0.00 | 0.00 | 0.00 | 79 | 1014.7 |
| 20260507072605 | 61 | 328 | 2.0 | 7.0 | 0.00 | 0.00 | 0.00 | 80 | 1014.6 |
| 20260507072105 | 61 | 305 | 2.0 | 3.0 | 0.00 | 0.00 | 0.00 | 80 | 1014.5 |
| 20260507071606 | 62 | 329 | 2.0 | 6.0 | 0.00 | 0.01 | 0.00 | 80 | 1014.5 |
| 20260507070107 | 60 | 271 | 2.0 | 2.0 | 0.00 | 0.03 | 0.00 | 83 | 1014.5 |
| 20260507065603 | 60 | 314 | 2.0 | 6.0 | 0.00 | 0.04 | 0.00 | 83 | 1014.4 |
| 20260507064606 | 59 | 247 | 2.0 | 3.0 | 0.00 | 0.05 | 0.00 | 87 | 1014.4 |
| 20260507064104 | 58 | 314 | 2.0 | 6.0 | 0.00 | 0.07 | 0.00 | 87 | 1014.2 |
| 20260507063604 | 58 | 300 | 2.0 | 3.0 | 0.00 | 0.08 | 0.00 | 87 | 1014.1 |
| 20260507062604 | 57 | 315 | 1.0 | 5.0 | 0.00 | 0.16 | 0.00 | 89 | 1014.1 |
| 20260507062104 | 57 | 289 | 1.0 | 2.0 | 0.00 | 0.18 | 0.00 | 89 | 1014.1 |
| 20260507061604 | 57 | 302 | 1.0 | 3.0 | 0.00 | 0.21 | 0.00 | 90 | 1014.1 |
| 20260507060606 | 56 | 246 | 2.0 | 5.0 | 0.00 | 0.23 | 0.00 | 92 | 1014.0 |
| 20260507060105 | 56 | 306 | 1.0 | 5.0 | 0.00 | 0.24 | 0.00 | 92 | 1014.0 |
| 20260507055604 | 56 | 184 | 1.0 | 2.0 | 0.00 | 0.26 | 0.00 | 94 | 1013.9 |
| 20260507054606 | 55 | 143 | 0.0 | 3.0 | 0.00 | 0.27 | 0.00 | 94 | 1013.9 |
| 20260507053604 | 55 | 301 | 0.0 | 2.0 | 0.00 | 0.27 | 0.00 | 95 | 1013.8 |
| 20260507053104 | 54 | 305 | 0.0 | 0.0 | 0.00 | 0.27 | 0.00 | 95 | 1013.8 |
| 20260507052105 | 54 | 305 | 0.0 | 2.0 | 0.00 | 0.27 | 0.00 | 94 | 1013.6 |
| 20260507051104 | 54 | 305 | 2.0 | 2.0 | 0.00 | 0.27 | 0.00 | 94 | 1013.4 |
| 20260507050606 | 54 | 305 | 2.0 | 2.0 | 0.00 | 0.27 | 0.00 | 94 | 1013.3 |
| 20260507050104 | 54 | 305 | 1.0 | 3.0 | 0.00 | 0.27 | 0.00 | 94 | 1013.3 |
| 20260507045604 | 54 | 305 | 0.0 | 3.0 | 0.00 | 0.27 | 0.00 | 94 | 1013.3 |
| 20260507044104 | 54 | 307 | 2.0 | 2.0 | 0.00 | 0.27 | 0.00 | 94 | 1013.2 |
| 20260507043604 | 54 | 307 | 2.0 | 3.0 | 0.00 | 0.27 | 0.00 | 94 | 1013.1 |
| 20260507043105 | 54 | 306 | 2.0 | 5.0 | 0.00 | 0.27 | 0.00 | 94 | 1013.1 |
| 20260507042604 | 54 | 316 | 2.0 | 5.0 | 0.00 | 0.27 | 0.00 | 94 | 1013.0 |
| 20260507042104 | 54 | 315 | 1.0 | 5.0 | 0.00 | 0.27 | 0.00 | 94 | 1012.9 |
| 20260507041607 | 53 | 239 | 1.0 | 5.0 | 0.00 | 0.27 | 0.00 | 94 | 1012.9 |
| 20260507041104 | 53 | 264 | 1.0 | 3.0 | 0.00 | 0.27 | 0.00 | 93 | 1012.8 |
| 20260507040104 | 53 | 287 | 0.0 | 3.0 | 0.00 | 0.27 | 0.00 | 92 | 1012.7 |
| 20260507035604 | 52 | 133 | 0.0 | 0.0 | 0.00 | 0.27 | 0.00 | 91 | 1012.6 |
| 20260507035104 | 52 | 133 | 0.0 | 0.0 | 0.00 | 0.27 | 0.00 | 91 | 1012.6 |
| 20260507034104 | 52 | 133 | 0.0 | 0.0 | 0.00 | 0.27 | 0.00 | 91 | 1012.5 |
| 20260507033607 | 53 | 133 | 0.0 | 2.0 | 0.00 | 0.27 | 0.00 | 90 | 1012.5 |
| 20260507033105 | 53 | 133 | 0.0 | 0.0 | 0.00 | 0.27 | 0.00 | 90 | 1012.5 |
| 20260507032605 | 53 | 133 | 0.0 | 2.0 | 0.00 | 0.27 | 0.00 | 90 | 1012.6 |
| 20260507032103 | 53 | 133 | 0.0 | 0.0 | 0.00 | 0.27 | 0.00 | 90 | 1012.6 |
| 20260507031604 | 53 | 133 | 0.0 | 0.0 | 0.00 | 0.27 | 0.00 | 89 | 1012.6 |
| 20260507031104 | 53 | 133 | 0.0 | 0.0 | 0.00 | 0.27 | 0.00 | 89 | 1012.6 |
| 20260507030606 | 53 | 133 | 0.0 | 1.0 | 0.00 | 0.27 | 0.00 | 89 | 1012.6 |
| 20260507030105 | 53 | 133 | 1.0 | 2.0 | 0.00 | 0.27 | 0.00 | 88 | 1012.6 |
| 20260507025104 | 53 | 133 | 1.0 | 2.0 | 0.00 | 0.28 | 0.00 | 88 | 1012.5 |
| 20260507024104 | 54 | 133 | 0.0 | 2.0 | 0.00 | 0.29 | 0.00 | 88 | 1012.4 |
| 20260507023604 | 54 | 133 | 0.0 | 2.0 | 0.00 | 0.29 | 0.00 | 88 | 1012.4 |
| 20260507023104 | 54 | 133 | 0.0 | 2.0 | 0.00 | 0.30 | 0.00 | 87 | 1012.4 |
| 20260507022104 | 54 | 133 | 2.0 | 0.0 | 0.00 | 0.34 | 0.00 | 87 | 1012.3 |
| 20260507021604 | 54 | 133 | 2.0 | 3.0 | 0.00 | 0.35 | 0.00 | 86 | 1012.3 |
| 20260507021104 | 55 | 133 | 3.0 | 5.0 | 0.00 | 0.37 | 0.00 | 86 | 1012.2 |
| 20260507020606 | 55 | 135 | 3.0 | 5.0 | 0.00 | 0.40 | 0.00 | 86 | 1012.2 |
| 20260507020104 | 55 | 125 | 2.0 | 5.0 | 0.00 | 0.41 | 0.00 | 85 | 1012.2 |
| 20260507015605 | 55 | 126 | 2.0 | 6.0 | 0.00 | 0.43 | 0.00 | 85 | 1012.1 |
| 20260507015105 | 55 | 120 | 2.0 | 5.0 | 0.00 | 0.43 | 0.00 | 85 | 1012.0 |
| 20260507014604 | 56 | 120 | 2.0 | 5.0 | 0.00 | 0.43 | 0.00 | 85 | 1012.0 |
| 20260507013604 | 56 | 127 | 2.0 | 5.0 | 0.00 | 0.43 | 0.00 | 84 | 1012.0 |
| 20260507013106 | 56 | 119 | 2.0 | 5.0 | 0.00 | 0.43 | 0.00 | 84 | 1012.0 |
| 20260507012604 | 56 | 117 | 2.0 | 5.0 | 0.00 | 0.43 | 0.00 | 84 | 1012.1 |
| 20260507012104 | 56 | 117 | 2.0 | 5.0 | 0.00 | 0.43 | 0.00 | 84 | 1012.1 |
| 20260507011603 | 56 | 118 | 2.0 | 5.0 | 0.00 | 0.43 | 0.00 | 83 | 1012.1 |
| 20260507005604 | 57 | 126 | 3.0 | 5.0 | 0.00 | 0.45 | 0.00 | 83 | 1012.3 |
| 20260507005105 | 57 | 124 | 3.0 | 5.0 | 0.00 | 0.45 | 0.00 | 83 | 1012.3 |
| 20260507004604 | 57 | 129 | 3.0 | 5.0 | 0.00 | 0.45 | 0.00 | 83 | 1012.3 |
| 20260507004105 | 57 | 128 | 3.0 | 5.0 | 0.00 | 0.45 | 0.00 | 83 | 1012.3 |
| 20260507003104 | 57 | 131 | 3.0 | 5.0 | 0.00 | 0.45 | 0.00 | 83 | 1012.3 |
| 20260507002105 | 56 | 127 | 3.0 | 5.0 | 0.00 | 0.45 | 0.00 | 82 | 1012.3 |
| 20260507001604 | 57 | 136 | 2.0 | 5.0 | 0.00 | 0.45 | 0.00 | 82 | 1012.3 |
| 20260507001104 | 57 | 118 | 3.0 | 5.0 | 0.00 | 0.45 | 0.00 | 82 | 1012.2 |
| 20260507000604 | 57 | 120 | 3.0 | 3.0 | 0.00 | 0.45 | 0.00 | 82 | 1012.2 |
| 20260506235603 | 57 | 120 | 3.0 | 5.0 | 0.00 | 0.45 | 0.00 | 80 | 1012.2 |
| 20260506235104 | 57 | 118 | 3.0 | 5.0 | 0.00 | 0.45 | 0.00 | 80 | 1012.2 |
| 20260506234604 | 58 | 119 | 2.0 | 6.0 | 0.00 | 0.45 | 0.00 | 80 | 1012.2 |
| 20260506233619 | 58 | 130 | 2.0 | 7.0 | 0.00 | 0.45 | 0.00 | 79 | 1012.1 |
| 20260506233104 | 58 | 141 | 2.0 | 5.0 | 0.00 | 0.45 | 0.00 | 79 | 1012.1 |
| 20260506232104 | 58 | 114 | 2.0 | 6.0 | 0.00 | 0.45 | 0.00 | 79 | 1011.9 |
| 20260506231105 | 58 | 130 | 2.0 | 5.0 | 0.00 | 0.45 | 0.00 | 79 | 1011.8 |
| 20260506230604 | 58 | 132 | 2.0 | 5.0 | 0.00 | 0.45 | 0.00 | 78 | 1011.8 |
| 20260506230103 | 58 | 166 | 3.0 | 5.0 | 0.00 | 0.45 | 0.00 | 78 | 1011.8 |
| 20260506225119 | 58 | 122 | 3.0 | 7.0 | 0.00 | 0.45 | 0.00 | 79 | 1011.6 |
| 20260506224105 | 58 | 116 | 3.0 | 5.0 | 0.00 | 0.45 | 0.00 | 79 | 1011.6 |
| 20260506223604 | 58 | 132 | 3.0 | 5.0 | 0.00 | 0.45 | 0.00 | 78 | 1011.6 |
| 20260506223115 | 58 | 130 | 3.0 | 6.0 | 0.00 | 0.45 | 0.00 | 78 | 1011.6 |
| 20260506222604 | 58 | 126 | 2.0 | 6.0 | 0.00 | 0.45 | 0.00 | 78 | 1011.7 |
| 20260506221604 | 58 | 124 | 2.0 | 5.0 | 0.00 | 0.45 | 0.00 | 78 | 1011.7 |
| 20260506221104 | 58 | 124 | 2.0 | 5.0 | 0.00 | 0.45 | 0.00 | 78 | 1011.6 |
| 20260506220604 | 58 | 120 | 2.0 | 5.0 | 0.00 | 0.45 | 0.00 | 77 | 1011.6 |
| 20260506215604 | 58 | 131 | 2.0 | 5.0 | 0.00 | 0.45 | 0.45 | 77 | 1011.6 |
| 20260506215104 | 58 | 141 | 2.0 | 3.0 | 0.00 | 0.45 | 0.45 | 76 | 1011.6 |
| 20260506214604 | 59 | 144 | 2.0 | 5.0 | 0.00 | 0.45 | 0.45 | 75 | 1011.6 |
| 20260506214105 | 59 | 125 | 2.0 | 5.0 | 0.00 | 0.45 | 0.45 | 75 | 1011.5 |
| 20260506213604 | 59 | 132 | 2.0 | 5.0 | 0.00 | 0.45 | 0.45 | 75 | 1011.5 |
| 20260506213105 | 59 | 126 | 5.0 | 5.0 | 0.00 | 0.45 | 0.45 | 75 | 1011.5 |
| 20260506212104 | 59 | 126 | 5.0 | 9.0 | 0.00 | 0.45 | 0.45 | 74 | 1011.2 |
| 20260506211605 | 59 | 135 | 5.0 | 10.0 | 0.00 | 0.45 | 0.45 | 74 | 1011.2 |
| 20260506211104 | 59 | 133 | 5.0 | 8.0 | 0.00 | 0.45 | 0.45 | 74 | 1011.1 |
| 20260506210105 | 59 | 126 | 3.0 | 13.0 | 0.00 | 0.45 | 0.45 | 75 | 1011.1 |
| 20260506205604 | 59 | 130 | 3.0 | 10.0 | 0.00 | 0.45 | 0.45 | 75 | 1011.1 |
| 20260506205103 | 59 | 132 | 4.0 | 8.0 | 0.00 | 0.45 | 0.45 | 75 | 1011.1 |
| 20260506204604 | 59 | 119 | 5.0 | 7.0 | 0.00 | 0.45 | 0.45 | 75 | 1011.1 |
| 20260506203605 | 59 | 135 | 3.0 | 7.0 | 0.00 | 0.45 | 0.45 | 75 | 1011.0 |
| 20260506203105 | 59 | 143 | 3.0 | 8.0 | 0.00 | 0.45 | 0.45 | 75 | 1011.0 |
| 20260506202104 | 59 | 135 | 3.0 | 9.0 | 0.00 | 0.45 | 0.45 | 75 | 1010.7 |
| 20260506201606 | 59 | 141 | 3.0 | 7.0 | 0.00 | 0.45 | 0.45 | 75 | 1010.7 |
| 20260506201104 | 59 | 138 | 5.0 | 6.0 | 0.00 | 0.45 | 0.45 | 74 | 1010.6 |
| 20260506200604 | 60 | 136 | 6.0 | 8.0 | 0.00 | 0.45 | 0.45 | 74 | 1010.5 |
| 20260506200104 | 60 | 143 | 5.0 | 8.0 | 0.00 | 0.45 | 0.45 | 74 | 1010.5 |
| 20260506194604 | 60 | 132 | 5.0 | 8.0 | 0.00 | 0.45 | 0.45 | 74 | 1010.4 |
| 20260506194104 | 60 | 129 | 5.0 | 10.0 | 0.00 | 0.45 | 0.45 | 73 | 1010.3 |
| 20260506193604 | 60 | 148 | 5.0 | 12.0 | 0.00 | 0.45 | 0.45 | 73 | 1010.2 |
| 20260506193104 | 60 | 117 | 3.0 | 8.0 | 0.00 | 0.45 | 0.45 | 73 | 1010.2 |
| 20260506192604 | 60 | 145 | 2.0 | 9.0 | 0.00 | 0.45 | 0.45 | 73 | 1010.0 |
| 20260506192104 | 60 | 124 | 4.0 | 7.0 | 0.00 | 0.45 | 0.45 | 73 | 1009.9 |
| 20260506190604 | 60 | 142 | 5.0 | 12.0 | 0.00 | 0.45 | 0.45 | 72 | 1009.5 |
| 20260506190106 | 60 | 151 | 5.0 | 13.0 | 0.00 | 0.45 | 0.45 | 72 | 1009.5 |
| 20260506185604 | 60 | 130 | 5.0 | 10.0 | 0.00 | 0.45 | 0.45 | 72 | 1009.4 |
| 20260506184605 | 60 | 146 | 5.0 | 10.0 | 0.00 | 0.45 | 0.45 | 72 | 1009.4 |
| 20260506183604 | 60 | 149 | 6.0 | 8.0 | 0.00 | 0.45 | 0.45 | 72 | 1009.2 |
| 20260506183106 | 60 | 135 | 5.0 | 8.0 | 0.00 | 0.45 | 0.45 | 72 | 1009.2 |
| 20260506182603 | 60 | 155 | 5.0 | 13.0 | 0.00 | 0.45 | 0.45 | 72 | 1009.1 |
| 20260506182104 | 60 | 141 | 5.0 | 7.0 | 0.00 | 0.45 | 0.45 | 72 | 1009.0 |
| 20260506181104 | 61 | 137 | 5.0 | 8.0 | 0.00 | 0.45 | 0.45 | 71 | 1008.8 |
| 20260506180604 | 61 | 148 | 5.0 | 9.0 | 0.00 | 0.46 | 0.45 | 71 | 1008.6 |
| 20260506180104 | 61 | 146 | 6.0 | 9.0 | 0.00 | 0.46 | 0.45 | 70 | 1008.6 |
| 20260506175604 | 61 | 142 | 6.0 | 8.0 | 0.00 | 0.46 | 0.45 | 70 | 1008.5 |
| 20260506175115 | 61 | 138 | 6.0 | 16.0 | 0.00 | 0.46 | 0.45 | 69 | 1008.4 |
| 20260506174604 | 61 | 130 | 6.0 | 12.0 | 0.00 | 0.46 | 0.45 | 69 | 1008.4 |
| 20260506174104 | 61 | 146 | 6.0 | 16.0 | 0.00 | 0.46 | 0.45 | 68 | 1008.2 |
| 20260506173606 | 62 | 147 | 7.0 | 12.0 | 0.00 | 0.46 | 0.45 | 68 | 1008.1 |
| 20260506173104 | 62 | 141 | 7.0 | 10.0 | 0.00 | 0.46 | 0.45 | 67 | 1008.1 |
| 20260506172606 | 62 | 133 | 7.0 | 15.0 | 0.00 | 0.46 | 0.45 | 67 | 1008.0 |
| 20260506172105 | 62 | 138 | 7.0 | 15.0 | 0.00 | 0.46 | 0.45 | 66 | 1007.9 |
| 20260506171104 | 63 | 129 | 6.0 | 16.0 | 0.00 | 0.46 | 0.45 | 65 | 1007.8 |
| 20260506170104 | 63 | 154 | 6.0 | 15.0 | 0.00 | 0.46 | 0.45 | 64 | 1007.8 |
| 20260506165606 | 63 | 152 | 6.0 | 13.0 | 0.00 | 0.46 | 0.45 | 64 | 1007.9 |
| 20260506164605 | 64 | 141 | 6.0 | 12.0 | 0.00 | 0.46 | 0.45 | 62 | 1007.9 |
| 20260506163604 | 64 | 133 | 6.0 | 14.0 | 0.00 | 0.46 | 0.45 | 61 | 1007.8 |
| 20260506163103 | 65 | 145 | 6.0 | 13.0 | 0.00 | 0.46 | 0.45 | 60 | 1007.8 |
| 20260506162604 | 65 | 150 | 6.0 | 14.0 | 0.00 | 0.46 | 0.45 | 60 | 1007.9 |
| 20260506162107 | 65 | 141 | 6.0 | 15.0 | 0.00 | 0.46 | 0.45 | 60 | 1007.9 |
| 20260506161105 | 65 | 153 | 6.0 | 14.0 | 0.00 | 0.46 | 0.45 | 57 | 1007.8 |
| 20260506160605 | 66 | 150 | 6.0 | 15.0 | 0.00 | 0.46 | 0.45 | 57 | 1007.8 |
| 20260506160104 | 66 | 127 | 6.0 | 14.0 | 0.00 | 0.46 | 0.45 | 58 | 1007.8 |
| 20260506155603 | 67 | 124 | 6.0 | 21.0 | 0.00 | 0.46 | 0.45 | 58 | 1007.9 |
| 20260506155105 | 67 | 151 | 5.0 | 9.0 | 0.00 | 0.46 | 0.45 | 58 | 1007.9 |
| 20260506154605 | 67 | 145 | 5.0 | 12.0 | 0.00 | 0.46 | 0.45 | 56 | 1007.9 |
| 20260506154107 | 67 | 133 | 6.0 | 13.0 | 0.00 | 0.46 | 0.45 | 57 | 1007.9 |
| 20260506153104 | 66 | 148 | 7.0 | 18.0 | 0.00 | 0.46 | 0.45 | 57 | 1007.9 |
| 20260506152603 | 66 | 151 | 7.0 | 12.0 | 0.00 | 0.46 | 0.45 | 57 | 1007.8 |
| 20260506152104 | 66 | 128 | 7.0 | 12.0 | 0.00 | 0.46 | 0.45 | 57 | 1007.8 |
| 20260506151104 | 67 | 145 | 7.0 | 14.0 | 0.00 | 0.46 | 0.45 | 57 | 1007.9 |
| 20260506145105 | 67 | 152 | 7.0 | 18.0 | 0.00 | 0.46 | 0.45 | 57 | 1008.0 |
| 20260506144104 | 68 | 142 | 6.0 | 17.0 | 0.00 | 0.46 | 0.45 | 57 | 1008.0 |
| 20260506143605 | 68 | 146 | 6.0 | 14.0 | 0.00 | 0.46 | 0.45 | 56 | 1008.0 |
| 20260506142604 | 69 | 129 | 7.0 | 13.0 | 0.00 | 0.46 | 0.45 | 57 | 1008.0 |
| 20260506142104 | 68 | 153 | 7.0 | 18.0 | 0.00 | 0.46 | 0.45 | 57 | 1008.0 |
| 20260506141106 | 69 | 155 | 6.0 | 15.0 | 0.00 | 0.46 | 0.45 | 57 | 1008.1 |
| 20260506140611 | 69 | 122 | 6.0 | 16.0 | 0.00 | 0.46 | 0.45 | 57 | 1008.1 |
| 20260506135604 | 70 | 167 | 6.0 | 16.0 | 0.00 | 0.46 | 0.45 | 53 | 1008.2 |
| 20260506135103 | 70 | 141 | 6.0 | 12.0 | 0.00 | 0.46 | 0.45 | 54 | 1008.3 |